Jasno s ojedinělými nízkými oblaky
Jasno s ojedinělými nízkými oblaky
Jasno s ojedinělými nízkými oblaky
Jasno s ojedinělými nízkými oblaky
Jasno s ojedinělými nízkými oblaky
Jasná obloha bez mraků
Jasno s ojedinělými nízkými oblaky
Jasno s ojedinělými nízkými oblaky
Jasno s ojedinělými nízkými oblaky
(°C)
26°
26°
26°
26°
26°
26°
25°
25°
25°
25°
24°
24°
23°
23°
23°
23°
22°
22°
(°C)
29°
29°
28°
27°
26°
25°
24°
24°
24°
ZSZ
ZSZ
ZSZ
ZSZ
Z
Z
Z
ZSZ
ZSZ
(km/h)
13-23
14-24
14-24
13-23
13-22
11-19
9-17
8-14
6-12
(mm)
0
0
0
0
0
0
0
0
0
(%)
0
0
0
0
0
0
0
0
0

Sluneční výška

/ 76°
sun-icon
UV 10
05:57
19:53
Ubývající měsíc (235°)
22:55
10:39

METAR pro San Diego (KSAN)

Čas Podmínky Teplota/
Rosný bod
Vítr Viditelnost Počasí Oblaky Tlak Změna Nezpracované
VFR 26.1°C / 19.4°C 290º 10kt >10km - Few Clouds 900ft
Few Clouds 5000ft
Scattered Clouds 20000ft
1016 - KSAN 251951Z 29010KT 10SM FEW009 FEW050 SCT200 26/19 A3002 RMK AO2 SLP164 CB DSNT E T02610194 $
VFR 26.1°C / 20°C 300º 11kt Gust 18kt >10km - Few Clouds 900ft
Few Clouds 5000ft
Scattered Clouds 20000ft
1017 - KSAN 251851Z 30011G18KT 8SM FEW009 FEW050 SCT200 26/20 A3004 RMK AO2 SLP171 T02610200 $
VFR 26.1°C / 20°C 310º 8kt >10km - Few Clouds 900ft
Few Clouds 25000ft
1017 - KSAN 251751Z 31008KT 10SM FEW009 FEW250 26/20 A3003 RMK AO2 SLP170 T02610200 10261 20217 58004 $
VFR 25°C / 19.4°C 280º 10kt >10km - Few Clouds 800ft
Few Clouds 25000ft
1017 - KSAN 251651Z 28010KT 8SM FEW008 FEW250 25/19 A3004 RMK AO2 SLP171 T02500194
VFR 23.9°C / 19.4°C 280º 6kt >10km - Few Clouds 800ft 1017 - KSAN 251551Z 28006KT 7SM FEW008 24/19 A3005 RMK AO2 SLP174 T02390194
VFR 23.9°C / 20°C 340º 4kt >10km - Few Clouds 800ft 1017 - KSAN 251451Z 34004KT 7SM FEW008 24/20 A3005 RMK AO2 SLP174 T02390200 51002 $
VFR 22.2°C / 20°C 350º 3kt 9700m Mist Scattered Clouds 800ft
Broken Clouds 25000ft
1017 - KSAN 251351Z 35003KT 6SM BR SCT008 BKN250 22/20 A3004 RMK AO2 SLP173 T02220200 $
IFR 22.2°C / 20°C 360º 4kt 9700m Mist Broken Clouds 800ft
Broken Clouds 25000ft
- KSAN 251316Z 36004KT 6SM BR BKN008 BKN250 22/20 A3004 RMK AO2 T02220200 $
VFR 22.2°C / 20°C 310º 4kt 9700m Mist Scattered Clouds 800ft
Broken Clouds 25000ft
- KSAN 251309Z 31004KT 6SM BR SCT008 BKN250 22/20 A3004 RMK AO2 T02220200 $
IFR 22.2°C / 20°C 320º 3kt >10km - Broken Clouds 800ft - KSAN 251255Z 32003KT 7SM BKN008 22/20 A3004 RMK AO2 T02220200 $
VFR 21.7°C / 19.4°C variable 0kt >10km - Few Clouds 700ft
Few Clouds 25000ft
- KSAN 251220Z 00000KT 7SM FEW007 FEW250 22/19 A3004 RMK AO2 T02170194 $
VFR 21.7°C / 19.4°C 320º 3kt >10km - Few Clouds 1200ft
Few Clouds 25000ft
1017 - KSAN 251151Z 32003KT 7SM FEW012 FEW250 22/19 A3004 RMK AO2 SLP172 T02170194 10222 20217 55005 $
VFR 21.7°C / 19.4°C 310º 4kt >10km - Few Clouds 1200ft
Few Clouds 25000ft
1017 - KSAN 251051Z 31004KT 7SM FEW012 FEW250 22/19 A3004 RMK AO2 SLP171 T02170194 $
VFR 21.7°C / 19.4°C 310º 3kt >10km - Few Clouds 1200ft 1017 - KSAN 250951Z 31003KT 7SM FEW012 22/19 A3005 RMK AO2 SLP175 T02170194 $
VFR 22.2°C / 19.4°C 300º 3kt >10km - Few Clouds 1200ft 1017 - KSAN 250851Z 30003KT 8SM FEW012 22/19 A3006 RMK AO2 SLP177 T02220194 58004 $
VFR 21.7°C / 19.4°C 300º 3kt >10km - Few Clouds 1200ft 1018 - KSAN 250751Z 30003KT 8SM FEW012 22/19 A3006 RMK AO2 SLP180 T02170194 402670217 $
VFR 22.2°C / 19.4°C 290º 5kt >10km - Few Clouds 1200ft 1018 - KSAN 250651Z 29005KT 8SM FEW012 22/19 A3007 RMK AO2 SLP183 T02220194 $
VFR 22.2°C / 19.4°C 300º 6kt >10km - Few Clouds 1200ft 1018 - KSAN 250551Z 30006KT 7SM FEW012 22/19 A3007 RMK AO2 SLP181 T02220194 10261 20222 53011 $
VFR 22.2°C / 19.4°C 300º 4kt 9700m Haze Few Clouds 1200ft 1017 - KSAN 250451Z 30004KT 6SM HZ FEW012 22/19 A3006 RMK AO2 SLP178 T02220194 $
VFR 22.8°C / 19.4°C 320º 5kt >10km - Few Clouds 1200ft 1017 - KSAN 250351Z 32005KT 8SM FEW012 23/19 A3004 RMK AO2 SLP172 T02280194 $
VFR 23.3°C / 19.4°C 300º 3kt 9700m Haze Few Clouds 1200ft
Scattered Clouds 5000ft
1017 - KSAN 250251Z 30003KT 6SM HZ FEW012 SCT050 23/19 A3004 RMK AO2 SLP170 T02330194 53008 $
VFR 24.4°C / 18.9°C 290º 7kt >10km - Few Clouds 1200ft
Few Clouds 5000ft
1016 - KSAN 250151Z 29007KT 10SM FEW012 FEW050 24/19 A3001 RMK AO2 SLP163 T02440189 $
VFR 26.1°C / 18.3°C 290º 7kt >10km - Few Clouds 1200ft
Scattered Clouds 5000ft
1016 - KSAN 250051Z 29007KT 10SM FEW012 SCT050 26/18 A3000 RMK AO2 SLP160 CB DSNT NE T02610183 $
VFR 25°C / 18.9°C 290º 9kt >10km - Few Clouds 1200ft
Scattered Clouds 5000ft
1016 - KSAN 242351Z 29009KT 10SM FEW012 SCT050 25/19 A3001 RMK AO2 SLP162 CB DSNT NE AND E AND SE T02500189 10267 20250 55007 $

VFR

26.1°C / 19.4°C

[Víc]
Vítr 290º 10kt
Viditelnost >10km
Počasí -
Oblaky Few Clouds 900ft
Few Clouds 5000ft
Scattered Clouds 20000ft
Tlak 1016
Změna -
Nezpracované KSAN 251951Z 29010KT 10SM FEW009 FEW050 SCT200 26/19 A3002 RMK AO2 SLP164 CB DSNT E T02610194 $

VFR

26.1°C / 20°C

[Víc]
Vítr 300º 11kt Gust 18kt
Viditelnost >10km
Počasí -
Oblaky Few Clouds 900ft
Few Clouds 5000ft
Scattered Clouds 20000ft
Tlak 1017
Změna -
Nezpracované KSAN 251851Z 30011G18KT 8SM FEW009 FEW050 SCT200 26/20 A3004 RMK AO2 SLP171 T02610200 $

VFR

26.1°C / 20°C

[Víc]
Vítr 310º 8kt
Viditelnost >10km
Počasí -
Oblaky Few Clouds 900ft
Few Clouds 25000ft
Tlak 1017
Změna -
Nezpracované KSAN 251751Z 31008KT 10SM FEW009 FEW250 26/20 A3003 RMK AO2 SLP170 T02610200 10261 20217 58004 $

VFR

25°C / 19.4°C

[Víc]
Vítr 280º 10kt
Viditelnost >10km
Počasí -
Oblaky Few Clouds 800ft
Few Clouds 25000ft
Tlak 1017
Změna -
Nezpracované KSAN 251651Z 28010KT 8SM FEW008 FEW250 25/19 A3004 RMK AO2 SLP171 T02500194

VFR

23.9°C / 19.4°C

[Víc]
Vítr 280º 6kt
Viditelnost >10km
Počasí -
Oblaky Few Clouds 800ft
Tlak 1017
Změna -
Nezpracované KSAN 251551Z 28006KT 7SM FEW008 24/19 A3005 RMK AO2 SLP174 T02390194

VFR

23.9°C / 20°C

[Víc]
Vítr 340º 4kt
Viditelnost >10km
Počasí -
Oblaky Few Clouds 800ft
Tlak 1017
Změna -
Nezpracované KSAN 251451Z 34004KT 7SM FEW008 24/20 A3005 RMK AO2 SLP174 T02390200 51002 $

VFR

22.2°C / 20°C

[Víc]
Vítr 350º 3kt
Viditelnost 9700m
Počasí Mist
Oblaky Scattered Clouds 800ft
Broken Clouds 25000ft
Tlak 1017
Změna -
Nezpracované KSAN 251351Z 35003KT 6SM BR SCT008 BKN250 22/20 A3004 RMK AO2 SLP173 T02220200 $

IFR

22.2°C / 20°C

[Víc]
Vítr 360º 4kt
Viditelnost 9700m
Počasí Mist
Oblaky Broken Clouds 800ft
Broken Clouds 25000ft
Tlak
Změna -
Nezpracované KSAN 251316Z 36004KT 6SM BR BKN008 BKN250 22/20 A3004 RMK AO2 T02220200 $

VFR

22.2°C / 20°C

[Víc]
Vítr 310º 4kt
Viditelnost 9700m
Počasí Mist
Oblaky Scattered Clouds 800ft
Broken Clouds 25000ft
Tlak
Změna -
Nezpracované KSAN 251309Z 31004KT 6SM BR SCT008 BKN250 22/20 A3004 RMK AO2 T02220200 $

IFR

22.2°C / 20°C

[Víc]
Vítr 320º 3kt
Viditelnost >10km
Počasí -
Oblaky Broken Clouds 800ft
Tlak
Změna -
Nezpracované KSAN 251255Z 32003KT 7SM BKN008 22/20 A3004 RMK AO2 T02220200 $

VFR

21.7°C / 19.4°C

[Víc]
Vítr variable 0kt
Viditelnost >10km
Počasí -
Oblaky Few Clouds 700ft
Few Clouds 25000ft
Tlak
Změna -
Nezpracované KSAN 251220Z 00000KT 7SM FEW007 FEW250 22/19 A3004 RMK AO2 T02170194 $

VFR

21.7°C / 19.4°C

[Víc]
Vítr 320º 3kt
Viditelnost >10km
Počasí -
Oblaky Few Clouds 1200ft
Few Clouds 25000ft
Tlak 1017
Změna -
Nezpracované KSAN 251151Z 32003KT 7SM FEW012 FEW250 22/19 A3004 RMK AO2 SLP172 T02170194 10222 20217 55005 $

VFR

21.7°C / 19.4°C

[Víc]
Vítr 310º 4kt
Viditelnost >10km
Počasí -
Oblaky Few Clouds 1200ft
Few Clouds 25000ft
Tlak 1017
Změna -
Nezpracované KSAN 251051Z 31004KT 7SM FEW012 FEW250 22/19 A3004 RMK AO2 SLP171 T02170194 $

VFR

21.7°C / 19.4°C

[Víc]
Vítr 310º 3kt
Viditelnost >10km
Počasí -
Oblaky Few Clouds 1200ft
Tlak 1017
Změna -
Nezpracované KSAN 250951Z 31003KT 7SM FEW012 22/19 A3005 RMK AO2 SLP175 T02170194 $

VFR

22.2°C / 19.4°C

[Víc]
Vítr 300º 3kt
Viditelnost >10km
Počasí -
Oblaky Few Clouds 1200ft
Tlak 1017
Změna -
Nezpracované KSAN 250851Z 30003KT 8SM FEW012 22/19 A3006 RMK AO2 SLP177 T02220194 58004 $

VFR

21.7°C / 19.4°C

[Víc]
Vítr 300º 3kt
Viditelnost >10km
Počasí -
Oblaky Few Clouds 1200ft
Tlak 1018
Změna -
Nezpracované KSAN 250751Z 30003KT 8SM FEW012 22/19 A3006 RMK AO2 SLP180 T02170194 402670217 $

VFR

22.2°C / 19.4°C

[Víc]
Vítr 290º 5kt
Viditelnost >10km
Počasí -
Oblaky Few Clouds 1200ft
Tlak 1018
Změna -
Nezpracované KSAN 250651Z 29005KT 8SM FEW012 22/19 A3007 RMK AO2 SLP183 T02220194 $

VFR

22.2°C / 19.4°C

[Víc]
Vítr 300º 6kt
Viditelnost >10km
Počasí -
Oblaky Few Clouds 1200ft
Tlak 1018
Změna -
Nezpracované KSAN 250551Z 30006KT 7SM FEW012 22/19 A3007 RMK AO2 SLP181 T02220194 10261 20222 53011 $

VFR

22.2°C / 19.4°C

[Víc]
Vítr 300º 4kt
Viditelnost 9700m
Počasí Haze
Oblaky Few Clouds 1200ft
Tlak 1017
Změna -
Nezpracované KSAN 250451Z 30004KT 6SM HZ FEW012 22/19 A3006 RMK AO2 SLP178 T02220194 $

VFR

22.8°C / 19.4°C

[Víc]
Vítr 320º 5kt
Viditelnost >10km
Počasí -
Oblaky Few Clouds 1200ft
Tlak 1017
Změna -
Nezpracované KSAN 250351Z 32005KT 8SM FEW012 23/19 A3004 RMK AO2 SLP172 T02280194 $

VFR

23.3°C / 19.4°C

[Víc]
Vítr 300º 3kt
Viditelnost 9700m
Počasí Haze
Oblaky Few Clouds 1200ft
Scattered Clouds 5000ft
Tlak 1017
Změna -
Nezpracované KSAN 250251Z 30003KT 6SM HZ FEW012 SCT050 23/19 A3004 RMK AO2 SLP170 T02330194 53008 $

VFR

24.4°C / 18.9°C

[Víc]
Vítr 290º 7kt
Viditelnost >10km
Počasí -
Oblaky Few Clouds 1200ft
Few Clouds 5000ft
Tlak 1016
Změna -
Nezpracované KSAN 250151Z 29007KT 10SM FEW012 FEW050 24/19 A3001 RMK AO2 SLP163 T02440189 $

VFR

26.1°C / 18.3°C

[Víc]
Vítr 290º 7kt
Viditelnost >10km
Počasí -
Oblaky Few Clouds 1200ft
Scattered Clouds 5000ft
Tlak 1016
Změna -
Nezpracované KSAN 250051Z 29007KT 10SM FEW012 SCT050 26/18 A3000 RMK AO2 SLP160 CB DSNT NE T02610183 $

VFR

25°C / 18.9°C

[Víc]
Vítr 290º 9kt
Viditelnost >10km
Počasí -
Oblaky Few Clouds 1200ft
Scattered Clouds 5000ft
Tlak 1016
Změna -
Nezpracované KSAN 242351Z 29009KT 10SM FEW012 SCT050 25/19 A3001 RMK AO2 SLP162 CB DSNT NE AND E AND SE T02500189 10267 20250 55007 $

TAF pro San Diego (KSAN)

From till


From till Wind 300º 10kt. Visibility 9700m. Few Clouds 15000ft.
From till Wind 4kt. Visibility 9700m. Sky Clear.
From till Wind 3kt. Visibility 9700m. Broken Clouds 1200ft.
From till Wind 4kt. Visibility 9700m. Few Clouds 1200ft.
From till Wind 280º 11kt. Visibility 9700m. Few Clouds 20000ft.

Nezpracované: KSAN 251737Z 2518/2624 30010KT P6SM FEW150 FM260300 VRB04KT P6SM SKC FM261000 VRB03KT P6SM BKN012 FM261600 VRB04KT P6SM FEW012 FM261800 28011KT P6SM FEW200

rainNOW: Předpověď deště pro San Diego a okolí (v okruhu 25 km)

0.0 mm
0.0 mm
0.0 mm
0.0 mm
0.0 mm
0.0 mm
0.0 mm
0.0 mm
0.0 mm
0.0 mm
0.0 mm
0.0 mm

Radar a krátkodobá předpověď srážek pro San Diego

Mrholení
Slabé
Střední
Silné
Velmi silné
Kroupy

Značka lokality je umístněna na San Diego. Tato animace zobrazuje srážkový radar pro vybraný časový rozsah a také 1h předpověď. Oranžové křížky označují blesky. Údaje poskytl nowcast.de (k dispozici v USA, Evropě a Austrálii). Mrholení nebo slabé sněžení může být pro radar neviditelné. Intenzita srážek je barevně označena od tyrkysové po červenou.

Aktuální snímky ze satelitu pro San Diego, Spojené státy americké

Značka polohy je umístěna na San Diego. [Víc]

Satelitní snímek v reálném čase kombinuje viditelné světlo během dne s infračerveným zářením během noci. V noci není obraz tmavý, protože infračervené záření dokáže detekovat teplotní rozdíly. Nízká oblačnost a mlha se bohužel těžko odlišují od pozemních teplot, a proto mohou být během noci téměř neviditelné. Satelitní snímky z Meteosatu pro Evropu jsou aktualizovány v reálném čase každých 5 minut. Snímky z GOES-16/GOES-17 (Severní a Jižní Amerika) a Himawari (Asie) jsou aktualizovány) každých 10 minut.

Srážky se odhadují z radarů a družic. Odhady srážek ze satelitů jsou v noci méně přesné než ve dne.

© 2024 meteoblue, NOAA Satellites GOES-16 and EUMETSAT. Údaje o blescích poskytuje nowcast.

Zpět nahoru
×
Dobrý den,
zdá se, že používáte blokovač reklam.

Reklama je nezbytná pro udržování našich bezplatných webových stránek s jedinečnými detaily a přesností.

Prosím, zapište www.meteoblue.com do svého blokovače reklam nebo zvažte nákup některého z našich produktů:

Máte již předplatné?
Pak se prosím přihlaste.